Kimball, NE

3:38 AM MDT on June 24, 2017 (GMT -0600)
Kimball Municipal-Arraj

Weather History for KIBM - November, 2012

Change the Weather History Date:

Monday, November 19, 2012

  Actual Average (KSNY) Record (KSNY)
Temperature  
Mean Temperature 46 °F -  
Max Temperature 61 °F 47 °F 78 °F (2007)
Min Temperature 31 °F 19 °F -3 °F (1985)
Degree Days  
Heating Degree Days 20    
Moisture  
Dew Point 27 °F    
Average Humidity 60    
Maximum Humidity 87    
Minimum Humidity 23    
Precipitation  
Precipitation 0.00 in - - ()
Sea Level Pressure  
Sea Level Pressure 30.15 in    
Wind  
Wind Speed 9 mph (West)    
Max Wind Speed 24 mph    
Max Gust Speed 30 mph    
Visibility 10 miles    
Events      
Averages and records for this station are not official NWS values.
T = Trace of Precipitation, MM = Missing Value Source: NWS Daily Summary

Daily Weather History Graph

Daily Weather History Graph

Search for Another Location

Airport or City:

Trip Planner

Search our weather history database for the weather conditions in past years. The results will help you decide how hot, cold, wet, or windy it might be!

Date:

Astronomy

Nov. 19, 2012 Rise Set
Actual Time 7:48 AM CST 5:32 PM CST
Civil Twilight 7:18 AM CST 6:02 PM CST
Nautical Twilight 6:44 AM CST 6:35 PM CST
Astronomical Twilight 6:11 AM CST 7:08 PM CST
Moon 12:50 PM CST (11/19) No Moon Set
Length of Visible Light 10h 43m
Length of Day
9h 44m
Waxing Crescent, 41% of the Moon is Illuminated
Nov 19
Waxing Crescent
Nov 20
First Quarter
Nov 28
Full
Dec 6
Last Quarter
Dec 13
New

Hourly Weather History & Observations

Time (CST) Temp. Windchill Dew Point Humidity Pressure Visibility Wind Dir Wind Speed Gust Speed Precip Events Conditions
12:15 AM 35.1 °F 27.4 °F 28.6 °F 77% 30.05 in 10.0 mi West 10.4 mph - N/A   Clear
12:35 AM 34.5 °F 30.4 °F 28.4 °F 78% 30.06 in 10.0 mi West 4.6 mph - N/A   Clear
12:55 AM 37.6 °F 29.6 °F 30.2 °F 75% 30.06 in 10.0 mi West 12.7 mph - N/A   Clear
1:15 AM 37.6 °F 31.6 °F 30.0 °F 74% 30.06 in 10.0 mi West 8.1 mph - N/A   Clear
1:35 AM 38.5 °F 30.7 °F 30.2 °F 72% 30.06 in 10.0 mi West 12.7 mph - N/A   Clear
1:55 AM 39.0 °F 32.8 °F 30.0 °F 70% 30.06 in 10.0 mi West 9.2 mph - N/A   Clear
2:15 AM 35.1 °F 27.9 °F 28.9 °F 78% 30.07 in 10.0 mi NW 9.2 mph - N/A   Clear
2:35 AM 33.6 °F 27.5 °F 28.4 °F 81% 30.08 in 10.0 mi West 6.9 mph - N/A   Clear
2:55 AM 32.4 °F 24.0 °F 28.4 °F 85% 30.09 in 10.0 mi West 10.4 mph - N/A   Clear
3:15 AM 32.5 °F 26.2 °F 28.0 °F 83% 30.10 in 10.0 mi WNW 6.9 mph - N/A   Clear
3:35 AM 33.1 °F 27.7 °F 27.9 °F 81% 30.10 in 10.0 mi WNW 5.8 mph - N/A   Scattered Clouds
3:55 AM 32.9 °F 25.3 °F 28.2 °F 83% 30.10 in 10.0 mi West 9.2 mph - N/A   Scattered Clouds
4:15 AM 32.5 °F 24.2 °F 28.4 °F 85% 30.10 in 10.0 mi West 10.4 mph - N/A   Clear
4:35 AM 33.3 °F 25.7 °F 28.0 °F 81% 30.11 in 10.0 mi West 9.2 mph - N/A   Clear
4:55 AM 32.0 °F 28.7 °F 27.5 °F 83% 30.11 in 10.0 mi West 3.5 mph - N/A   Clear
5:15 AM 31.1 °F 25.4 °F 27.3 °F 86% 30.11 in 10.0 mi NW 5.8 mph - N/A   Clear
5:35 AM 32.9 °F 25.3 °F 28.9 °F 85% 30.12 in 10.0 mi WNW 9.2 mph - N/A   Clear
5:55 AM 32.2 °F 25.0 °F 28.2 °F 85% 30.13 in 10.0 mi WNW 8.1 mph - N/A   Clear
6:15 AM 31.1 °F 27.7 °F 27.3 °F 86% 30.13 in 10.0 mi WNW 3.5 mph - N/A   Clear
6:35 AM 31.3 °F 24.7 °F 27.7 °F 87% 30.13 in 10.0 mi NW 6.9 mph - N/A   Clear
6:55 AM 32.0 °F 25.6 °F 27.9 °F 85% 30.13 in 10.0 mi WNW 6.9 mph - N/A   Clear
7:35 AM 31.8 °F 24.6 °F 28.4 °F 87% 30.15 in 10.0 mi WNW 8.1 mph - N/A   Clear
7:55 AM 31.5 °F 26.8 °F 27.5 °F 85% 30.16 in 10.0 mi WNW 4.6 mph - N/A   Clear
8:15 AM 32.2 °F 28.9 °F 28.4 °F 86% 30.17 in 10.0 mi West 3.5 mph - N/A   Clear
8:35 AM 32.2 °F 27.7 °F 28.6 °F 87% 30.17 in 10.0 mi WSW 4.6 mph - N/A   Clear
8:55 AM 37.0 °F 33.3 °F 31.1 °F 79% 30.18 in 10.0 mi West 4.6 mph - N/A   Clear
9:15 AM 42.4 °F 40.7 °F 33.4 °F 70% 30.19 in 10.0 mi WNW 3.5 mph - N/A   Clear
9:35 AM 45.1 °F 42.8 °F 32.2 °F 60% 30.19 in 10.0 mi WNW 4.6 mph - N/A   Clear
9:55 AM 44.6 °F 42.2 °F 31.8 °F 61% 30.19 in 10.0 mi WNW 4.6 mph - N/A   Clear
10:15 AM 46.4 °F 43.5 °F 31.8 °F 57% 30.19 in 10.0 mi West 5.8 mph - N/A   Clear
10:35 AM 47.7 °F - 31.8 °F 54% 30.20 in 10.0 mi WNW 5.8 mph - N/A   Clear
10:55 AM 48.7 °F - 32.0 °F 52% 30.20 in 10.0 mi WNW 8.1 mph - N/A   Clear
11:15 AM 52.0 °F - 33.1 °F 49% 30.20 in 10.0 mi West 9.2 mph - N/A   Clear
11:35 AM 57.6 °F - 30.4 °F 36% 30.20 in 10.0 mi WNW 16.1 mph 25.3 mph N/A   Clear
11:55 AM 58.5 °F - 26.1 °F 29% 30.19 in 10.0 mi West 20.7 mph 26.5 mph N/A   Clear
12:15 PM 59.5 °F - 25.2 °F 27% 30.19 in 10.0 mi West 21.9 mph 29.9 mph N/A   Clear
12:35 PM 59.9 °F - 25.3 °F 27% 30.19 in 10.0 mi West 20.7 mph 29.9 mph N/A   Clear
12:55 PM 60.8 °F - 25.3 °F 26% 30.17 in 10.0 mi West 23.0 mph 27.6 mph N/A   Clear
1:15 PM 60.3 °F - 24.1 °F 25% 30.17 in 10.0 mi West 24.2 mph - N/A   Clear
1:35 PM 59.0 °F - 23.4 °F 25% 30.17 in 10.0 mi West 19.6 mph 26.5 mph N/A   Clear
1:55 PM 60.4 °F - 22.8 °F 24% 30.16 in 10.0 mi West 20.7 mph 28.8 mph N/A   Clear
2:15 PM 59.5 °F - 23.2 °F 25% 30.16 in 10.0 mi West 16.1 mph 21.9 mph N/A   Clear
2:35 PM 59.9 °F - 22.3 °F 24% 30.15 in 10.0 mi West 19.6 mph 24.2 mph N/A   Clear
2:55 PM 59.9 °F - 21.7 °F 23% 30.15 in 10.0 mi WSW 17.3 mph 21.9 mph N/A   Clear
3:15 PM 60.3 °F - 21.9 °F 23% 30.15 in 10.0 mi West 16.1 mph - N/A   Clear
3:35 PM 60.1 °F - 21.7 °F 23% 30.15 in 10.0 mi West 13.8 mph - N/A   Clear
3:55 PM 59.9 °F - 22.1 °F 23% 30.15 in 10.0 mi WSW 11.5 mph - N/A   Clear
4:15 PM 59.5 °F - 22.5 °F 24% 30.15 in 10.0 mi West 12.7 mph - N/A   Clear
4:35 PM 58.5 °F - 22.6 °F 25% 30.16 in 10.0 mi WSW 9.2 mph - N/A   Clear
4:55 PM 56.8 °F - 23.4 °F 27% 30.16 in 10.0 mi WSW 9.2 mph - N/A   Clear
5:15 PM 52.2 °F - 23.9 °F 33% 30.16 in 10.0 mi WSW 9.2 mph - N/A   Clear
5:35 PM 48.2 °F - 24.4 °F 39% 30.16 in 10.0 mi SW 5.8 mph - N/A   Clear
5:55 PM 45.5 °F 41.8 °F 24.3 °F 43% 30.17 in 10.0 mi SW 6.9 mph - N/A   Clear
6:15 PM 43.3 °F 38.6 °F 24.1 °F 47% 30.17 in 10.0 mi SW 8.1 mph - N/A   Clear
6:35 PM 42.1 °F 37.1 °F 24.4 °F 50% 30.18 in 10.0 mi WSW 8.1 mph - N/A   Clear
6:55 PM 39.9 °F 35.1 °F 25.2 °F 56% 30.19 in 10.0 mi WSW 6.9 mph - N/A   Clear
7:15 PM 40.8 °F 36.2 °F 25.3 °F 54% 30.19 in 10.0 mi WSW 6.9 mph - N/A   Clear
7:35 PM 38.1 °F 33.7 °F 25.5 °F 61% 30.20 in 10.0 mi WNW 5.8 mph - N/A   Clear
7:55 PM 37.8 °F 34.2 °F 25.7 °F 62% 30.20 in 10.0 mi WSW 4.6 mph - N/A   Clear
8:15 PM 35.2 °F 30.3 °F 25.2 °F 67% 30.20 in 10.0 mi West 5.8 mph - N/A   Clear
8:35 PM 34.2 °F 27.5 °F 25.0 °F 69% 30.20 in 10.0 mi WNW 8.1 mph - N/A   Clear
8:55 PM 36.0 °F 29.6 °F 26.6 °F 69% 30.20 in 10.0 mi West 8.1 mph - N/A   Clear
9:15 PM 34.3 °F 28.4 °F 26.1 °F 72% 30.20 in 10.0 mi West 6.9 mph - N/A   Clear
9:35 PM 34.7 °F 30.6 °F 26.1 °F 71% 30.20 in 10.0 mi WSW 4.6 mph - N/A   Clear
9:55 PM 33.8 °F 29.6 °F 25.7 °F 72% 30.20 in 10.0 mi West 4.6 mph - N/A   Clear
10:15 PM 33.4 °F 25.9 °F 25.7 °F 73% 30.20 in 10.0 mi West 9.2 mph - N/A   Clear
10:35 PM 32.9 °F 25.9 °F 25.2 °F 73% 30.20 in 10.0 mi WSW 8.1 mph - N/A   Clear
10:55 PM 32.2 °F - 25.2 °F 75% 30.20 in 10.0 mi Calm Calm - N/A   Clear
11:15 PM 32.7 °F 25.7 °F 25.5 °F 75% 30.20 in 10.0 mi West 8.1 mph - N/A   Clear
11:35 PM 31.8 °F 27.3 °F 24.6 °F 75% 30.20 in 10.0 mi West 4.6 mph - N/A   Clear
11:55 PM 31.5 °F 24.9 °F 24.6 °F 76% 30.20 in 10.0 mi West 6.9 mph - N/A   Clear